SQ7KHZ-10 Weather Reports


time (UTC)temp
C
wind
direction
speed
KPH
gust
KPH
rain 1hr
cm
rain 24hr
cm
rain mn
cm
humidity
%
barometer
mb
20260504080846 21 140 0.0 0.0 0.00 0.00 0.00 41 1014.6
20260504050707 13 131 0.0 0.0 0.00 0.00 0.00 60 1014.5
20260504044627 11 152 0.0 0.0 0.00 0.00 0.00 65 1014.3
20260504042619 10 150 3.2 3.2 0.00 0.00 0.00 71 1014.1
20260504040609 8 89 3.2 3.2 0.00 0.00 0.00 77 1014.1
20260504034553 7 148 0.0 0.0 0.00 0.00 0.00 81 1014.1
20260504032553 7 127 0.0 0.0 0.00 0.00 0.00 82 1014.0
20260504030551 6 131 0.0 0.0 0.00 0.00 0.00 84 1014.0
20260504024549 6 130 0.0 0.0 0.00 0.00 0.00 86 1014.0
20260504022549 6 133 0.0 0.0 0.00 0.00 0.00 84 1014.1
20260504020549 7 140 0.0 0.0 0.00 0.00 0.00 83 1014.1
20260504014537 6 138 0.0 0.0 0.00 0.00 0.00 83 1014.2
20260504012525 6 128 0.0 0.0 0.00 0.00 0.00 85 1014.2
20260504010524 7 124 0.0 0.0 0.00 0.00 0.00 82 1014.3
20260504004524 7 134 0.0 0.0 0.00 0.00 0.00 82 1014.4
20260504002512 8 148 0.0 0.0 0.00 0.00 0.00 76 1014.5
20260504000437 9 111 0.0 0.0 0.00 0.00 0.00 74 1014.6
20260503234400 9 137 0.0 0.0 0.00 0.00 0.00 73 1014.6
20260503232400 9 129 0.0 0.0 0.00 0.00 0.00 76 1014.6
20260503230336 10 139 0.0 0.0 0.00 0.00 0.00 74 1014.6
20260503224323 11 171 0.0 0.0 0.00 0.00 0.00 69 1014.7
20260503222322 10 205 0.0 0.0 0.00 0.00 0.00 74 1014.7
20260503220311 10 135 0.0 0.0 0.00 0.00 0.00 73 1014.7
20260503214234 10 170 0.0 0.0 0.00 0.00 0.00 75 1014.8
20260503212234 11 116 0.0 0.0 0.00 0.00 0.00 74 1014.7
20260503210211 11 127 0.0 0.0 0.00 0.00 0.00 73 1014.7
20260503204158 11 124 0.0 0.0 0.00 0.00 0.00 74 1014.6
20260503202146 12 122 0.0 0.0 0.00 0.00 0.00 71 1014.6
20260503200147 12 154 0.0 0.0 0.00 0.00 0.00 68 1014.6
20260503194134 15 132 0.0 0.0 0.00 0.00 0.00 62 1014.6
20260503192123 15 160 0.0 0.0 0.00 0.00 0.00 62 1014.6
20260503190059 16 118 0.0 0.0 0.00 0.00 0.00 56 1014.5
20260503184047 17 232 0.0 0.0 0.00 0.00 0.00 55 1014.4
20260503182034 17 120 0.0 0.0 0.00 0.00 0.00 50 1014.3
20260503180034 20 166 0.0 0.0 0.00 0.00 0.00 45 1014.2
20260503174034 21 148 0.0 0.0 0.00 0.00 0.00 42 1014.1
20260503171946 22 185 0.0 0.0 0.00 0.00 0.00 37 1014.1